Find Starlink 31641

NORAD ID: 59374 Int'l Des: 2024-062 Owner: SPXS Country: US Constellation: starlink operational
LEOCIRCULAR

实时位置

正在加载3D地球...

关于 Starlink 31641

正在加载描述...

即将过境

Passes for default location (London). Set your location on the main map for personalized predictions.

高度历史

Loading altitude history...

两行轨道根数

1 59374U 24062A 26121.25002315 .00083371 00000-0 25234-2 0 9992
2 59374 53.1600 14.3595 0000891 116.4059 71.0521 15.33483758 5914
Epoch: May 1, 2026 • Age: 8 hours

当前状态

高度 469.7 km
速度 7.64 km/s
星下点 46.71°N, 78.56°E
发射日期 Apr 2, 2024
运行时间 2 years
类型 internet

技术详情

分类 Payload
质量 730.00 kg
干质量 700.00 kg
总质量 730.00 kg
长度 0.30 m
直径 4.10 m
跨度 29.00 m
形状 Box + pan
制造商 SPXS
平台类型 Starlink V2M
阶段状态 In Orbit
所有者/国家 SPXS/US

Most Searched